Miscellaneous Local Product
Issued by NWS Hastings, NE

Home | Current Version | Previous Version | Graphics & Text | Print | Product List | Glossary On
Versions: 1 2 3 4 5 6 7 8 9 10 11 12 13 14 15 16 17 18 19 20 21 22 23 24 25 26 27 28 29 30 31 32 33 34 35 36 37 38 39 40 41 42 43 44 45 46 47 48 49 50
000
AXUS43 KGID 211002
MISGRI

GID CWA HOURLY WEATHER ROUNDUP
NATIONAL WEATHER SERVICE HASTINGS NE
500 AM CDT TUE APR 21 2015

NOTE: "FAIR" INDICATES FEW OR NO CLOUDS BELOW 12,000 FEET WITH NO
SIGNIFICANT WEATHER AND/OR OBSTRUCTIONS TO VISIBILITY.

...SOUTH CENTRAL NEBRASKA...

CITY           SKY/WX    TMP DP  RH WIND       PRES   REMARKS
GRAND ISLAND   CLOUDY    40  31  70 W8        29.88S WCI  34
HASTINGS       PTCLDY    36  28  73 W6        29.87F WCI  31
KEARNEY        CLEAR     34  27  75 NW6       29.89S WCI  29
ORD            MOCLDY    36  28  73 W6        29.85S WCI  31
YORK           CLOUDY    41  32  70 W10       29.87S
AURORA         CLOUDY    41  32  70 W7        29.87S
LEXINGTON      CLEAR     32  29  90 NW6       29.90S WCI  26
HOLDREGE       CLOUDY    36  29  78 NW3       29.89S
HEBRON         MOCLDY    36  28  73 W5        29.89R WCI  32

...NEBRASKA PANHANDLE...

CITY           SKY/WX    TMP DP  RH WIND       PRES   REMARKS
CHADRON        CLEAR     25  21  85 W5        29.89F WCI  19
ALLIANCE       CLEAR     24  21  88 W8        29.91S WCI  15
SCOTTSBLUFF    CLEAR     29  25  85 N6        29.92S WCI  23
SIDNEY         CLEAR     31  26  82 NW12      29.92S WCI  22

...WESTERN AND NORTH CENTRAL NEBRASKA...

CITY           SKY/WX    TMP DP  RH WIND       PRES   REMARKS
VALENTINE      CLEAR     30  23  75 W5        29.84F WCI  25
AINSWORTH      CLEAR     33  25  72 W8        29.84F WCI  26
ONEILL         CLEAR     32  24  71 W9        29.83S WCI  24
BROKEN BOW     PTCLDY    36  26  67 CALM      29.87S
IMPERIAL       CLEAR     33  26  75 W3        29.90S
NORTH PLATTE   CLEAR     26  24  92 NW5       29.90S WCI  20
MCCOOK         PTCLDY    36  30  79 W3        29.89F

...EASTERN NEBRASKA...

CITY           SKY/WX    TMP DP  RH WIND       PRES   REMARKS
NORFOLK        CLEAR     38  23  55 W9        29.80F WCI  31
SO SIOUX CITY  CLEAR     33  15  47 NW7       29.78F WCI  27
TEKAMAH        CLEAR     37  23  56 W13       29.79F WCI  29
COLUMBUS       CLEAR     37  21  52 W8        29.85F WCI  31
ALBION         CLEAR     38  20  48 CALM      29.84S
OMAHA EPPLEY   PTCLDY    42  24  49 W12       29.81S
OFFUTT AFB     CLEAR     40  24  54 SW6       29.81S
MILLARD        CLEAR     43  25  48 CALM      29.82S
LINCOLN        PTCLDY    44  30  57 W7        29.86S
NEBRASKA CITY  PTCLDY    40  26  58 W10       29.84R WCI  34
BEATRICE       PTCLDY    40  32  73 W9        29.87R WCI  34
FALLS CITY     CLOUDY    45  31  58 W14       29.84R

...NORTHERN KANSAS...

CITY           SKY/WX    TMP DP  RH WIND       PRES   REMARKS
GOODLAND       CLEAR     37  31  78 W12       29.91S WCI  29
HILL CITY      MOCLDY    40  32  73 W7        29.88F
NORTON         SUNNY     37  27  65 N3        29.88S
PHILLIPSBURG   CLEAR     39  34  81 N5        29.89S
SMITH CENTER   CLEAR     34  27  75 N5        29.89S WCI  30
BELOIT         PTCLDY    32  32 100 CALM      29.88F
HAYS           CLOUDY    41  28  60 W6        29.87F
RUSSELL        MOCLDY    43  34  70 SW9       29.86S
CONCORDIA      PTCLDY    37  30  75 W6        29.88S WCI  32
SALINA         CLEAR     42  35  76 N7        29.88S
TOPEKA         CLEAR     42  33  70 W5        29.88S



USA.gov is the U.S. government's official web portal to all federal, state and local government web resources and services.